This is the latest recevied weather packets stored in our database for station/object KM4CNW. If no packets are shown the sender has not sent any weather packets the latest 10 day(s).
| Time | Temp. | Humidity | Pressure | Rain* | Wind** | Luminosity | Snow |
|---|---|---|---|---|---|---|---|
| 1777611811 | 11.67° C | 59% | 1008.3 hPa | 0 mm | - | 0 W/m² | - |
| 1777611507 | 11.67° C | 59% | 1008.2 hPa | 0 mm | - | 0 W/m² | - |
| 1777611204 | 11.67° C | 59% | 1008.1 hPa | 0 mm | - | 0 W/m² | - |
| 1777610901 | 11.67° C | 61% | 1008 hPa | 0 mm | - | 0 W/m² | - |
| 1777610596 | 11.67° C | 60% | 1007.9 hPa | 0 mm | - | 0 W/m² | - |
| 1777610294 | 11.67° C | 59% | 1008 hPa | 0 mm | - | 0 W/m² | - |
| 1777609992 | 11.67° C | 62% | 1007.8 hPa | 0 mm | - | 0 W/m² | - |
| 1777609688 | 11.67° C | 63% | 1007.8 hPa | 0 mm | - | 0 W/m² | - |
| 1777609386 | 11.67° C | 63% | 1007.9 hPa | 0 mm | - | 0 W/m² | - |
| 1777609083 | 11.67° C | 60% | 1008 hPa | 0 mm | - | 0 W/m² | - |
| 1777608780 | 12.22° C | 60% | 1007.7 hPa | 0 mm | - | 0 W/m² | - |
| 1777608476 | 12.22° C | 60% | 1007.8 hPa | 0 mm | - | 0 W/m² | - |
| 1777608175 | 12.22° C | 59% | 1007.7 hPa | 0 mm | - | 0 W/m² | - |
| 1777607871 | 11.67° C | 59% | 1007.8 hPa | 0 mm | - | 0 W/m² | - |
| 1777607567 | 11.67° C | 59% | 1007.7 hPa | 0 mm | - | 0 W/m² | - |
| 1777607263 | 12.22° C | 60% | 1007.7 hPa | 0 mm | - | 0 W/m² | - |
| 1777606959 | 12.22° C | 62% | 1007.4 hPa | 0 mm | - | 0 W/m² | - |
| 1777606656 | 12.22° C | 60% | 1007.6 hPa | 0 mm | - | 0 W/m² | - |
| 1777606351 | 12.22° C | 57% | 1007.3 hPa | 0 mm | - | 0 W/m² | - |
| 1777606052 | 12.22° C | 59% | 1007.4 hPa | 0 mm | - | 0 W/m² | - |
| 1777605748 | 12.78° C | 58% | 1007.3 hPa | 0 mm | - | 0 W/m² | - |
| 1777605446 | 12.78° C | 56% | 1007.4 hPa | 0 mm | - | 0 W/m² | - |
| 1777605145 | 13.33° C | 56% | 1007.4 hPa | 0 mm | - | 0 W/m² | - |
| 1777604839 | 13.33° C | 53% | 1007.5 hPa | 0 mm | - | 0 W/m² | - |
| 1777604536 | 12.78° C | 50% | 1007.6 hPa | 0 mm | - | 0 W/m² | - |
* Rain latest hour (hover to see other rain measurements)
** Current wind speed in m/s (hover to see current wind gust speed)